Regional Weather Roundup
Issued by NWS Bismarck, ND

Home | Current Version | Previous Version | Text Only | Print | Product List | Glossary On
Versions: 1 2 3 4 5 6 7 8 9 10 11 12 13 14 15 16 17 18 19 20 21 22 23 24 25 26 27 28 29 30 31 32 33 34 35 36 37 38 39 40 41 42 43 44 45 46 47 48 49 50
000
ASUS43 KBIS 310310
RWRBIS

NWR BROADCAST TEXT
NATIONAL WEATHER SERVICE BISMARCK ND
900 PM CST FRI JAN 30 2015

NOTE: "FAIR" INDICATES FEW OR NO CLOUDS BELOW 12,000 FEET WITH NO
SIGNIFICANT WEATHER AND/OR OBSTRUCTIONS TO VISIBILITY.


CITY           SKY/WX    TMP DP  RH WIND       PRES   REMARKS
WILLISTON      MOCLDY    28  24  85 N13       30.20S WCI  17
MINOT          CLOUDY    25  21  85 N9        30.20S WCI  15
MINOT AFB      CLOUDY    25  24  99 N8        30.20F WCI  16
BISMARCK       CLEAR     30  27  88 N8        30.20S
DICKINSON      CLEAR     31  23  72 N7        30.13F
GARRISON         N/A     26  23  88 N8        30.19R WCI  18
HETTINGER ARPT CLEAR     24  20  84 CALM      30.16F
JAMESTOWN      CLOUDY    26  23  88 N10       30.17R WCI  16
BEACH          FAIR      25  25 100 S3        30.16F
CARRINGTON     CLOUDY    23  23 100 MISG      30.20R FOG
CROSBY         CLOUDY    23  23 100 N10       30.23S WCI  12
HARVEY         CLOUDY    25  25 100 N13       30.20R WCI  13
HAZEN          FAIR      27  25  93 NE7       30.21R WCI  19
LINTON         FAIR      32  32 100 N7        30.17S
MANDAN         FAIR      27  25  93 N7        30.18F WCI  19
OAKES            N/A     30  30 100 NW10      30.16R
RUGBY          MOCLDY    23  23 100 NW9       30.19S WCI  13
TIOGA          CLOUDY    21  21 100 N9G18     30.22S FOG     WCI  11
WATFORD CITY   FAIR      27  25  93 N7        30.17S WCI  19
$$

CITY           SKY/WX    TMP DP  RH WIND       PRES   REMARKS
GRAND FORKS    CLOUDY    26  19  74 N15       30.17R WCI  14
GRAND FORKS AF CLOUDY    25  18  76 N15       30.19R WCI  13
DEVILS LAKE    CLOUDY    23  18  80 N13G20    30.18S WCI  11
FARGO          CLEAR     28  22  78 NW13      30.14R WCI  17
CANDO          CLOUDY    23  18  80 N14G20    30.20S WCI  11
CAVALIER       CLOUDY    19  16  86 N14G21    30.20S WCI   6
GWINNER        CLEAR     32  32 100 NW14      30.16R
ROLLA          CLOUDY    19  19 100 N17       30.19R WCI   4
WALHALLA         N/A     18  18 100 N21       30.22R WCI   1
$$

CITY           SKY/WX    TMP DP  RH WIND       PRES   REMARKS
ABERDEEN       CLEAR     28  25  88 NW5       30.16F
MOBRIDGE       CLEAR     28  24  85 N7        30.12F
BUFFALO          N/A     35  25  66 N9        30.08F
RAPID CITY     CLOUDY    34  23  64 N10       30.13F
GLASGOW        CLEAR     30  27  88 E10       30.12F
SIDNEY         CLEAR     27  23  86 NW3       30.21R
WOLF POINT     CLEAR     28  24  85 E9        30.17F WCI  19
GLENDIVE       CLEAR     30  25  80 NE6       30.16F
MILES CITY     PTCLDY    36  26  67 SE3       30.12F
BAKER          CLEAR     25  21  85 SE5       30.15F WCI  19
$$

CITY           SKY/WX    TMP DP  RH WIND       PRES   REMARKS
BILLINGS       PTCLDY    38  24  57 S6        30.09F
GREAT FALLS    CLEAR     32  20  61 S13       30.02F
REGINA         FLURRIES  18  14  86 N10       30.25F WCI   6
ESTEVAN        FLURRIES  21  19  93 N6        30.22S WCI  14
$$




USA.gov is the U.S. government's official web portal to all federal, state and local government web resources and services.